Fryeburg, ME

4:19 AM EDT on August 30, 2016 (GMT -0400)
Eastern Slopes Regional

Weather History for KIZG - May, 2014

Change the Weather History Date:

Thursday, May 29, 2014

  Actual Average Record
Temperature  
Mean Temperature 52 °F -  
Max Temperature 72 °F 68 °F 91 °F (1998)
Min Temperature 32 °F 42 °F 32 °F (2014)
Degree Days  
Heating Degree Days 14    
Growing Degree Days 2 (Base 50)    
Moisture  
Dew Point 35 °F    
Average Humidity 79    
Maximum Humidity 100    
Minimum Humidity 25    
Precipitation  
Precipitation 0.00 in - - ()
Sea Level Pressure  
Sea Level Pressure 30.22 in    
Wind  
Wind Speed 1 mph (South)    
Max Wind Speed 8 mph    
Max Gust Speed -    
Visibility 5 miles    
Events Fog    
Averages and records for this station are not official NWS values.
T = Trace of Precipitation, MM = Missing Value Source: NWS Daily Summary

Daily Weather History Graph

Daily Weather History Graph

Search for Another Location

Airport or City:

Trip Planner

Search our weather history database for the weather conditions in past years. The results will help you decide how hot, cold, wet, or windy it might be!

Date:

Astronomy

May. 29, 2014 Rise Set
Actual Time 5:05 AM EDT 8:17 PM EDT
Civil Twilight 4:30 AM EDT 8:52 PM EDT
Nautical Twilight 3:45 AM EDT 9:37 PM EDT
Astronomical Twilight 2:50 AM EDT 10:32 PM EDT
Moon 5:58 AM EDT (5/29) 9:02 PM EDT (5/29)
Length of Visible Light 16h 21m
Length of Day
15h 11m
New Moon, 1% of the Moon is Illuminated
May 29
New Moon
Jun 5
First Quarter
Jun 13
Full
Jun 19
Last Quarter
Jun 27
New

Hourly Weather History & Observations

Time (EDT) Temp. Windchill Dew Point Humidity Pressure Visibility Wind Dir Wind Speed Gust Speed Precip Events Conditions
12:01 AM 37.9 °F 35.5 °F 37.9 °F 100% 30.23 in 8.0 mi West 3.5 mph - N/A   Partly Cloudy
12:54 AM 36.0 °F - 34.0 °F 93% 30.24 in 2.5 mi Calm Calm - N/A   Scattered Clouds
12:57 AM 35.1 °F - 34.0 °F 96% 30.22 in 1.5 mi Calm Calm - N/A   Mostly Cloudy
1:01 AM 36.0 °F - 34.0 °F 93% 30.22 in 0.8 mi Calm Calm - N/A   Mist
1:07 AM 36.0 °F - 34.0 °F 93% 30.22 in 1.2 mi Calm Calm - N/A   Scattered Clouds
1:10 AM 36.0 °F - 35.1 °F 97% 30.22 in 2.0 mi Calm Calm - N/A   Scattered Clouds
1:15 AM 35.1 °F - 34.0 °F 96% 30.22 in 0.8 mi Calm Calm - N/A   Mist
1:25 AM 34.0 °F - 34.0 °F 100% 30.23 in 0.2 mi Calm Calm - N/A Fog Fog
1:49 AM 35.6 °F - 33.8 °F 93% 30.22 in 0.8 mi Calm Calm - N/A   Mist
2:15 AM 34.0 °F - 33.1 °F 96% 30.21 in 0.2 mi Calm Calm - N/A Fog Fog
2:54 AM 34.0 °F - 33.1 °F 96% 30.23 in 0.2 mi Calm Calm - N/A Fog Fog
3:54 AM 32.0 °F - 30.9 °F 96% 30.22 in 0.2 mi Calm Calm - N/A Fog Fog
4:32 AM 32.0 °F - 30.9 °F 96% 30.22 in 0.5 mi Calm Calm - N/A Fog Fog
4:39 AM 32.0 °F 28.7 °F 30.9 °F 96% 30.22 in 0.2 mi NW 3.5 mph - N/A Fog Fog
4:54 AM 32.0 °F - 30.9 °F 96% 30.24 in 0.8 mi Calm Calm - N/A   Mist
5:04 AM 32.0 °F - 30.9 °F 96% 30.23 in 0.8 mi Calm Calm - N/A   Mist
5:13 AM 32.0 °F - 30.9 °F 96% 30.23 in 0.2 mi Calm Calm - N/A Fog Fog
5:32 AM 32.0 °F - 30.9 °F 96% 30.24 in 1.0 mi Calm Calm - N/A   Mist
5:38 AM 32.0 °F - 30.9 °F 96% 30.24 in 2.0 mi Calm Calm - N/A   Mostly Cloudy
5:45 AM 32.0 °F - 30.9 °F 96% 30.23 in 10.0 mi Calm Calm - N/A   Mostly Cloudy
5:49 AM 32.0 °F - 32.0 °F 100% 30.23 in 1.2 mi Calm Calm - N/A   Mostly Cloudy
5:54 AM 33.1 °F - 32.0 °F 96% 30.25 in 0.2 mi Calm Calm - N/A Fog Fog
6:22 AM 36.0 °F 33.3 °F 35.1 °F 97% 30.24 in 0.5 mi WNW 3.5 mph - N/A Fog Fog
6:34 AM 37.9 °F - 37.0 °F 97% 30.25 in 1.5 mi Calm Calm - N/A   Mostly Cloudy
6:36 AM 37.9 °F - 37.0 °F 97% 30.25 in 3.0 mi Calm Calm - N/A   Mostly Cloudy
6:54 AM 39.9 °F - 39.0 °F 97% 30.26 in 8.0 mi Calm Calm - N/A   Mostly Cloudy
7:08 AM 41.0 °F - 39.9 °F 96% 30.25 in 10.0 mi Calm Calm - N/A   Scattered Clouds
7:54 AM 46.9 °F - 44.1 °F 90% 30.27 in 10.0 mi Calm Calm - N/A   Clear
8:54 AM 54.0 °F - 44.1 °F 69% 30.26 in 10.0 mi Calm Calm - N/A   Clear
9:54 AM 60.1 °F - 41.0 °F 49% 30.25 in 10.0 mi Variable 3.5 mph - N/A   Clear
10:54 AM 62.1 °F - 36.0 °F 38% 30.25 in 10.0 mi Variable 4.6 mph - N/A   Clear
11:54 AM 64.9 °F - 39.9 °F 40% 30.23 in 10.0 mi Variable 4.6 mph - N/A   Clear
12:54 PM 66.0 °F - 37.0 °F 34% 30.22 in 10.0 mi Variable 3.5 mph - N/A   Clear
1:54 PM 70.0 °F - 34.0 °F 27% 30.20 in 10.0 mi ESE 6.9 mph - N/A   Clear
2:54 PM 69.1 °F - 36.0 °F 30% 30.18 in 10.0 mi South 3.5 mph - N/A   Clear
3:54 PM 71.1 °F - 33.1 °F 25% 30.17 in 10.0 mi SSW 6.9 mph - N/A   Clear
6:54 PM 64.0 °F - 39.0 °F 40% 30.12 in 10.0 mi SSE 8.1 mph - N/A   Clear
7:54 PM 60.1 °F - 36.0 °F 41% 30.14 in 10.0 mi SE 4.6 mph - N/A   Clear
8:54 PM 53.1 °F - 37.0 °F 55% 30.14 in 10.0 mi Calm Calm - N/A   Clear
9:54 PM 53.1 °F - 36.0 °F 52% 30.15 in 10.0 mi SSE 5.8 mph - N/A   Clear
10:54 PM 51.1 °F - 36.0 °F 56% 30.14 in 10.0 mi South 4.6 mph - N/A   Clear
11:54 PM 45.0 °F - 41.0 °F 86% 30.14 in 10.0 mi Calm Calm - N/A   Clear